San Angelo, TX

8:25 PM CST on February 18, 2018 (GMT -0600)
San Angelo Regional-Mathis

Weather History for KSJT - October, 2012

Change the Weather History Date:

Wednesday, October 10, 2012

  Actual Average Record
Temperature  
Mean Temperature 67 °F 68 °F  
Max Temperature 76 °F 81 °F 94 °F (1965)
Min Temperature 58 °F 56 °F 36 °F (1990)
Degree Days  
Heating Degree Days 0 2  
Month to date heating degree days 40 12  
Since 1 July heating degree days 42 21  
Cooling Degree Days 2 5  
Month to date cooling degree days 34 57  
Year to date cooling degree days 3078 2422  
Growing Degree Days 16 (Base 50)    
Moisture  
Dew Point 58 °F    
Average Humidity 79    
Maximum Humidity 100    
Minimum Humidity 57    
Precipitation  
Precipitation 0.00 in 0.09 in 1.45 in (1918)
Month to date precipitation 0.01 0.87  
Year to date precipitation 21.30 17.40  
Snow  
Snow 0.00 in 0.00 in T in (2001)
Month to date snowfall 0.0 0.0  
Since 1 July snowfall 0.0 0.0  
Snow Depth 0.00 in    
Sea Level Pressure  
Sea Level Pressure 30.06 in    
Wind  
Wind Speed 7 mph (NE)    
Max Wind Speed 15 mph    
Max Gust Speed 17 mph    
Visibility 10 miles    
Events      
T = Trace of Precipitation, MM = Missing Value Source: NWS Daily Summary

Daily Weather History Graph

Daily Weather History Graph

Search for Another Location

Airport or City:

Trip Planner

Search our weather history database for the weather conditions in past years. The results will help you decide how hot, cold, wet, or windy it might be!

Date:

Astronomy

Oct. 10, 2012 Rise Set
Actual Time 7:41 AM CDT 7:15 PM CDT
Civil Twilight 7:17 AM CDT 7:39 PM CDT
Nautical Twilight 6:49 AM CDT 8:07 PM CDT
Astronomical Twilight 6:21 AM CDT 8:35 PM CDT
Moon 2:38 AM CDT (10/10) 4:02 PM CDT (10/10)
Length of Visible Light 12h 22m
Length of Day
11h 33m
Waning Crescent, 27% of the Moon is Illuminated
Oct 10
Waning Crescent
Oct 15
New
Oct 21
First Quarter
Oct 29
Full
Nov 6
Last Quarter

Hourly Weather History & Observations

Time (CDT) Temp. Dew Point Humidity Pressure Visibility Wind Dir Wind Speed Gust Speed Precip Events Conditions
12:51 AM 61.0 °F 57.0 °F 87% 29.96 in 10.0 mi Calm Calm - N/A   Clear
1:51 AM 59.0 °F 55.9 °F 90% 29.94 in 10.0 mi SSW 6.9 mph - N/A   Clear
2:51 AM 63.0 °F 60.1 °F 90% 29.94 in 10.0 mi Calm Calm - N/A   Clear
3:51 AM 61.0 °F 59.0 °F 93% 29.94 in 9.0 mi NNE 3.5 mph - N/A   Clear
4:51 AM 63.0 °F 60.1 °F 90% 29.98 in 10.0 mi NE 11.5 mph - N/A   Clear
5:51 AM 60.1 °F 57.9 °F 93% 30.01 in 8.0 mi East 9.2 mph - N/A   Clear
6:51 AM 57.9 °F 57.0 °F 97% 30.04 in 7.0 mi North 3.5 mph - N/A   Clear
7:37 AM 57.2 °F 57.2 °F 100% 30.10 in 7.0 mi Calm Calm - N/A   Mostly Cloudy
7:51 AM 60.1 °F 57.9 °F 93% 30.06 in 8.0 mi Calm Calm - N/A   Overcast
8:37 AM 62.6 °F 59.0 °F 88% 30.13 in 7.0 mi NE 5.8 mph - N/A   Overcast
9:41 AM 60.8 °F 55.4 °F 82% 30.16 in 10.0 mi NE 9.2 mph - N/A   Overcast
9:51 AM 61.0 °F 53.1 °F 75% 30.12 in 10.0 mi NE 10.4 mph - N/A   Overcast
10:51 AM 62.1 °F 53.1 °F 72% 30.15 in 10.0 mi ENE 8.1 mph - N/A   Overcast
11:51 AM 62.1 °F 53.1 °F 72% 30.15 in 10.0 mi ENE 9.2 mph - N/A   Overcast
12:51 PM 66.0 °F 55.0 °F 68% 30.13 in 10.0 mi NNE 10.4 mph - N/A   Overcast
1:51 PM 70.0 °F 57.0 °F 63% 30.12 in 10.0 mi North 9.2 mph - N/A   Overcast
1:59 PM 69.8 °F 57.2 °F 64% 30.15 in 10.0 mi NNW 9.2 mph - N/A   Mostly Cloudy
2:51 PM 73.0 °F 57.9 °F 59% 30.08 in 10.0 mi NNW 8.1 mph - N/A   Clear
3:51 PM 75.0 °F 60.1 °F 60% 30.05 in 10.0 mi NNE 4.6 mph - N/A   Clear
4:51 PM 75.9 °F 61.0 °F 60% 30.04 in 10.0 mi NE 6.9 mph - N/A   Clear
5:51 PM 75.0 °F 61.0 °F 62% 30.03 in 10.0 mi NE 9.2 mph - N/A   Clear
6:51 PM 73.0 °F 61.0 °F 66% 30.04 in 10.0 mi NE 8.1 mph - N/A   Clear
7:51 PM 70.0 °F 60.1 °F 71% 30.04 in 10.0 mi NE 8.1 mph - N/A   Clear
8:51 PM 66.9 °F 59.0 °F 76% 30.06 in 10.0 mi NE 6.9 mph - N/A   Clear
9:51 PM 64.0 °F 57.9 °F 80% 30.08 in 10.0 mi NE 5.8 mph - N/A   Clear
10:51 PM 63.0 °F 57.9 °F 84% 30.09 in 10.0 mi NE 8.1 mph - N/A   Clear
11:51 PM 61.0 °F 57.9 °F 90% 30.09 in 10.0 mi NE 5.8 mph - N/A   Clear